Location: General Nathan Twining Observatory
(34.5931°N, 106.8201°W)
Time: 23:28:42
(UTC-06:00)

Daily predictions for brighter satellites

Satellite Brightness Start Highest point End
(mag) Time Altitude Azimuth Time Altitude Azimuth Time Altitude Azimuth
Cosmos 1758 Rocket 4.5 20:46:10 10° SSE 20:50:02 30° E 20:53:54 10° NNE
Cosmos 1707 2.8 20:48:26 10° S 20:52:18 85° W 20:56:10 10° N
Envisat 3.8 20:47:59 10° S 20:52:56 53° W 20:57:54 10° NNW
Cosmos 1939 Rocket 2.9 20:54:32 10° SSE 20:58:38 89° W 21:02:41 10° NNW
SWAS 4.5 20:55:29 10° NNW 20:59:49 83° ENE 21:04:08 10° SSE
USA 186 2.1 20:58:50 10° S 21:02:03 64° W 21:05:06 10° NNW
Resurs 01 Rocket 1.7 21:00:13 10° SSE 21:04:36 67° ENE 21:09:00 10° N
ERS-2 2.6 21:01:09 10° SSE 21:04:39 44° ENE 21:08:09 10° N
USA 215 3.8 20:59:26 10° ESE 21:05:43 51° NE 21:12:01 10° NNW
Cosmos 1048 Rocket 4.0 21:01:47 10° SSW 21:07:04 82° ESE 21:12:27 10° NNE
SJ-11-01 4.3 21:04:15 10° SSE 21:08:59 77° ENE 21:13:43 10° N
OAO 3 Rocket 3.3 21:04:37 10° W 21:09:37 84° N 21:14:34 10° E
OAO 3 Copernicus 4.4 21:09:05 10° W 21:14:09 70° SSW 21:18:43 13° ESE
Cosmos 1825 Rocket 3.6 21:09:48 10° S 21:14:14 72° E 21:18:41 10° N
SL-8 R/B 4.4 21:11:41 10° WSW 21:16:27 60° NW 21:21:14 10° NE
Cosmos 1315 Rocket 2.8 21:13:42 10° S 21:17:42 71° E 21:21:48 10° NNE
Cosmos 1943 4.3 21:16:12 10° NW 21:21:31 43° WSW 21:26:46 10° S
Cosmos 2278 Rocket 3.6 21:18:53 13° SE 21:21:33 18° E 21:25:13 10° ENE
ARGOS 3.9 21:17:47 13° SE 21:22:13 37° ENE 21:27:11 10° N
Cosmos 1953 4.2 21:18:57 10° NNW 21:22:29 31° W 21:26:01 10° SSW
H-II Stage 2 3.4 21:19:03 10° SW 21:22:41 16° S 21:23:57 13° SSE
Spot 2 Rocket 3.5 21:22:55 10° SSE 21:27:57 86° ENE 21:33:03 10° NNW
Cosmos 1420 Rocket 4.3 21:28:47 10° NNW 21:33:54 64° WSW 21:39:01 10° S
Cosmos 1452 Rocket 4.2 21:29:24 10° NNW 21:34:33 55° WSW 21:39:41 10° S
Cosmos 1844 Rocket 2.7 21:32:06 10° SSW 21:37:45 90° NW 21:43:26 10° NNE
SL-08 RB Rocket 4.3 21:39:23 20° SE 21:42:07 41° ENE 21:46:31 10° N
COSMOS 2406 4.2 21:38:06 10° N 21:43:14 32° ENE 21:46:26 19° ESE
Cosmos 1844 3.6 21:38:40 10° SSW 21:44:19 78° ESE 21:50:05 10° NNE
Cosmos 1238 Rocket 2.3 21:42:40 11° SSW 21:45:27 67° W 21:48:26 10° N
CZ-3 Stage 3 3.7 21:43:28 10° WSW 21:47:02 61° S 22:03:58 10° E
SPOT 5 4.4 21:45:39 18° ESE 21:47:56 24° ENE 21:52:03 10° NNE
Cosmos 2084 3.2 21:47:09 10° NNW 21:50:59 68° ENE 21:52:41 31° SE
Cosmos 1110 Rocket 4.4 21:46:11 10° N 21:51:10 46° ENE 21:53:47 25° SE
Cosmos 1346 Rocket 2.8 21:48:30 10° N 21:52:31 70° E 21:54:36 27° SSE
Lacrosse 5 4.3 21:49:12 10° W 21:53:20 25° NW 21:57:29 10° NNE
ATLAS 5 CENTAUR R/B 3.0 21:55:48 21° E 21:55:48 21° E 21:58:29 10° ENE
Cosmos-2242 3.0 21:51:21 10° N 21:55:45 76° E 21:58:12 26° SSE
ATLAS 3B R/B 3.5 21:50:12 10° NNW 21:56:15 36° NE 22:00:08 20° ESE
USA 238 DEB 4.1 21:53:47 10° NNW 22:00:48 54° NE 22:05:06 25° ESE
USA 238 4.2 21:53:54 10° NNW 22:00:54 54° NE 22:05:12 24° ESE
Cosmos 494 Rocket 4.1 21:56:17 10° SSW 22:01:30 80° WNW 22:06:47 10° NNE
Meteor 1-24 Rocket 4.3 21:56:22 10° SSW 22:02:20 63° W 22:08:19 10° N
H-2A R/B 2.1 21:59:23 25° SSE 22:02:34 74° ENE 22:07:57 10° N
Cosmos 1331 Rocket 4.2 21:58:26 10° N 22:03:32 54° ENE 22:05:50 31° SE
S3M 4.1 22:00:15 21° SSE 22:04:32 57° E 22:10:47 10° NNE
Iridium 41 4.5 22:04:43 40° SSE 22:05:51 69° E 22:09:36 10° N
Helios 1A 4.1 22:05:04 25° E 22:05:56 27° ENE 22:09:29 10° NNE
Helios 1B rocket 3.6 22:07:03 10° NE 22:10:02 25° E 22:10:02 25° E
Cosmos 1908 3.1 22:08:17 10° N 22:12:10 80° E 22:13:18 45° SSE
Cosmos 2082 Rocket 4.4 22:10:08 10° NNE 22:12:18 12° NE 22:14:27 10° ENE
Cosmos 1842 Rocket 4.0 22:11:32 10° N 22:15:39 41° E 22:16:22 38° ESE
Cosmos 1340 2.9 22:13:22 10° N 22:17:03 48° E 22:17:22 47° E
CSL-04 DEB 4.4 22:17:00 49° SE 22:17:46 61° ENE 22:21:39 10° N
CZ-2C R/B 4.2 22:18:07 10° NE 22:21:06 18° E 22:21:06 18° E
SEDSat Delta rocket 3.5 22:18:20 10° WSW 22:23:23 45° SSE 22:23:43 44° SSE
ATLAS 2AS CENTAUR R/B 4.2 22:16:53 10° WSW 22:24:13 44° NW 22:31:54 10° NNE
Aurora 2 Rocket 4.2 22:20:11 10° WSW 22:26:06 40° S 22:28:29 33° SE
Cosmos 1553 Rocket 4.0 22:22:24 17° S 22:27:08 78° W 22:33:13 10° N
Cosmos 1674 4.0 22:25:09 16° SW 22:27:48 37° W 22:31:23 10° N
MetOp-B 4.4 22:25:04 27° S 22:27:57 63° WSW 22:33:16 10° NNW
ERS-1 Rocket 2.9 22:26:45 38° S 22:28:43 85° WSW 22:33:47 10° NNW
Cosmos 1302 Rocket 4.3 22:27:24 10° N 22:32:36 54° ENE 22:33:50 44° ESE
DMSP B5D2-2 4.1 22:29:11 10° N 22:34:25 79° WNW 22:37:28 26° SSW
Cosmos 1300 3.4 22:33:16 10° N 22:36:28 41° ENE 22:36:28 41° ENE
RESURS DK-1 4.4 22:41:55 17° ENE 22:41:55 17° ENE 22:43:08 10° NE
Cosmos 2251 Rocket 3.7 22:37:15 19° SSW 22:41:07 70° WNW 22:46:27 10° NNE
Cosmos 1726 2.5 22:37:45 10° NNW 22:41:27 58° W 22:41:48 55° WSW
Terra 2.5 22:41:23 38° E 22:41:46 38° ENE 22:46:11 10° N
Cosmos 883 Rocket 4.5 22:39:52 43° SSE 22:41:47 62° E 22:47:54 10° NNE
Meteor 2-10 4.2 22:38:29 10° NNW 22:43:58 78° W 22:45:55 42° S
Cosmos 2221 3.0 22:41:11 10° N 22:45:02 44° ENE 22:45:02 44° ENE
Cosmos 2315 Rocket 4.2 22:47:00 45° SE 22:48:18 52° E 22:54:25 10° NNE
USA 215 4.0 22:46:11 29° S 22:48:43 40° SW 22:54:48 10° WNW
Cosmos 921 Rocket 4.4 22:44:57 10° NW 22:49:02 34° W 22:50:23 28° SW
Cosmos 1386 Rocket 4.3 22:44:08 10° N 22:50:13 80° E 22:51:53 50° SSE
Meteor 1-29 4.4 22:47:34 10° NNE 22:49:26 30° NNE 22:49:26 30° NNE
OAO 3 Rocket 3.1 22:48:16 10° W 22:53:12 71° SSW 22:53:18 71° S
Cosmos 1461 4.3 22:52:40 10° SW 22:57:03 43° WNW 23:01:36 10° NNE
NOSS 2-2 (E) 3.6 22:59:03 62° WNW 22:59:15 63° WNW 23:03:23 10° NNE
NOSS 3-4 (A) 3.9 22:55:27 10° SW 23:01:30 61° WNW 23:07:47 10° NNE
CZ-2C R/B 3.5 23:00:37 51° ESE 23:01:33 57° ENE 23:07:11 10° N
NOSS 3-4 (C) 3.8 22:55:32 10° SW 23:01:35 62° WNW 23:07:53 10° NNE
CENTAUR R/B 4.1 22:56:01 10° NNW 23:03:22 37° NE 23:07:22 25° E
Cosmos 2278 Rocket 2.9 23:00:36 15° SW 23:05:07 52° WNW 23:10:40 10° N
IGS 5A 3.7 23:09:47 68° NNW 23:09:47 68° NNW 23:13:28 10° NNW
BREEZE-M DEB (TANK) 4.1 23:00:31 10° SW 23:12:24 83° NW 23:16:32 10° NE
APEX 4.4 23:12:36 10° NW 23:14:55 37° WNW 23:14:55 37° WNW
CARTOSAT-1 4.0 23:21:01 58° WNW 23:21:01 58° WNW 23:24:51 10° NNW
Nimbus 7 Rocket 4.4 23:17:51 10° NNE 23:23:54 82° WNW 23:25:13 57° SSW
SPOT 5 4.0 23:24:53 33° WSW 23:25:43 35° W 23:30:30 10° NNW
COSMOS 2406 4.5 23:22:28 10° NW 23:27:24 30° WSW 23:28:30 28° WSW
Cosmos 1076 Rocket 4.4 23:32:29 46° NW 23:32:29 46° NW 23:36:05 10° N
Cosmos 2369 Rocket 4.3 23:36:42 13° ENE 23:36:42 13° ENE 23:37:45 10° ENE
ATLAS 5 CENTAUR R/B 3.3 23:37:13 21° W 23:39:20 31° NW 23:43:36 10° NNE
Cosmos 1626 4.1 23:40:51 27° NW 23:40:51 27° NW 23:43:16 10° NNW
Meteor 2-2 Rocket 4.1 23:35:39 10° N 23:41:08 80° NE 23:41:08 80° NE
Cosmos 1766 Rocket 4.5 23:46:05 48° N 23:46:05 48° N 23:49:22 10° N
ATLAS 3B R/B 3.4 23:40:54 10° NW 23:46:50 37° WSW 23:47:22 36° WSW
Mayak 1.2 23:43:53 10° NE 23:44:50 15° NE 23:44:50 15° NE
Cosmos 2297 4.0 23:48:46 55° W 23:49:29 60° WNW 23:55:08 10° NNE
